Location: Taupo
(38.6830°S, 176.0830°E)
Time: 06:30:31
(UTC+13:00)

Cosmos 1763 Rocket - Pass Details

Date: 24 January 2019
Orbit: 733 x 780 km, 74.0° (Epoch: 18 February)

Event Time Altitude Azimuth Distance (km) Brightness Sun altitude
Rises 22:23:46 0° 204° (SSW) 3,261 8.1 -17.8°
Reaches altitude 10° 22:26:13 10° 208° (SSW) 2,320 7.1 -18.2°
Maximum altitude 22:31:19 52° 284° (WNW) 939 4.1 -18.9°
Enters shadow 22:34:29 22° 351° (N) 1,616 4.8 -19.3°
